CZ-6A DEB

Satellite information

Favourite Embed

Satellite Type and Status

DEBRISIN ORBIT

Key statistics

Satellite CZ-6A DEB at a glance.

Uptime

912

Days in orbit

Revolutions

≈ 14.5

Per day

Orbit

SSO

Sun Synchronous Orbit

Inclination

98.5

Latest

Satellite identification and parameters

Extended collection of information and parameters for CZ-6A DEB.

Object identification

Identified? True

Debris? True

Object name: CZ-6A DEB

International designator: 2022-151KC

Object number (NORAD): 54524

Object ID (CCSDS): 54524

Country: PEOPLES REPUBLIC OF CHINA (PRC)

Current information (Y/N): Y

RCS size: SMALL

Orbital parameters

Period: 98.992 minutes

Inclination: 98.4919 deg

SMA: 7088.614 km

Apoapsis: 780.761 km

Periapsis: 640.197 km

RAAN: 151.7835 deg

Eccentricy: 0.0099148

Argument of periapsis: 76.3609 deg

Mean anomaly: 284.8605 deg

Mean motion: 14.54657565 rev/day

Mean motion (dot): 0.00008131 rev/day2

B* drag term: 0.0017904 1/REarth

Two-line elements (TLE)

Creation date: May 11, 2025, 2:40 a.m.

Reference frame: TEME

Reference center: EARTH

Epoch: May 10, 2025, 3:04 p.m. UTC

TLE line 0: 0 CZ-6A DEB

TLE line 1: 1 54524U 22151KC 25130.62825681 .00008131 00000-0 17904-2 0 9996

TLE line 2: 2 54524 98.4919 151.7835 0099148 76.3609 284.8605 14.54657565131246

Live tracking on map

Real-time ground track for satellite CZ-6A DEB.

In-orbit conjunctions

A list of the most updated potential collisions computed for object CZ-6A DEB.

Target Orbit TCA Probability of collision Miss distance Type
MUBLCOM SSO 2025-02-03 12:21:05 0.0002490348 221.0 (m) PAYLOAD
CZ-6A DEB LEO 2024-10-12 00:11:34 0.0002060899 825.0 (m) DEBRIS

Associated space launch

Chinese satellite reported for atmospheric/ocean/environmental/spatial parameter research purposes, details TBD.

CZ-6A DEB was lifted into orbit during the mission ‘Long March 6A | Yunhai 3’, on board a Long March 6A space rocket.

The launch took place on Nov. 11, 2022, 10:52 p.m. from Launch Complex 9A.

For more information about the launch, click the button.

Launch to space Long March 6A | Yunhai 3
Long March 6A | Yunhai 3

Agency: N/A

Status: Launch Successful

Launch date: Nov. 11, 2022, 10:52 p.m. UTC

Rocket: Long March 6A

Launch pad: Launch Complex 9A

Location: Taiyuan Satellite Launch Center, People's Republic of China

...

Latest news about this satellite

There are no fresh news available about this satellite. Check back as we update our databases every day.


Newsletter sign-up

Weekly statistics, charts and insights to help you stay on top of the space industry.